Regional Weather Roundup
Issued by NWS San Angelo, TX

Home | Current Version | Previous Version | Text Only | Print | Product List | Glossary On
Versions: 1 2 3 4 5 6 7 8 9 10 11 12 13 14 15 16 17 18 19 20 21 22 23 24 25 26 27 28 29 30 31 32 33 34 35 36 37 38 39 40 41 42 43 44 45 46 47 48 49 50
000
ASUS44 KSJT 031302
RWRSJT
WEST CENTRAL TEXAS REGIONAL WEATHER ROUNDUP
NATIONAL WEATHER SERVICE SAN ANGELO TX
800 AM CDT TUE MAY 03 2016

NOTE: "FAIR" INDICATES FEW OR NO CLOUDS BELOW 12,000 FEET WITH NO
SIGNIFICANT WEATHER AND/OR OBSTRUCTIONS TO VISIBILITY.

TXZ049-054-064>066-071>073-076>078-098-099-113-114-127-128-139-140-
154-155-168>170-031400
...LOCATIONS ACROSS WEST CENTRAL TEXAS...

CITY           SKY/WX    TMP DP  RH WIND       PRES   REMARKS
SAN ANGELO     FAIR      46  44  93 SW5       30.13R
ABILENE        FAIR      51  48  89 S5        30.13R
DYESS AFB      FAIR      51  48  90 CALM      30.11R
JUNCTION       FAIR      44  41  89 W3        30.14R
SWEETWATER     NOT AVBL
BROWNWOOD      FAIR      46  46 100 CALM      30.15R
COLEMAN        FAIR      49  47  94 CALM      30.14R
SONORA         NOT AVBL
OZONA          NOT AVBL
BRADY          NOT AVBL
$$

TEXAS PANHANDLE/OKLAHOMA PANHANDLE

CITY           SKY/WX    TMP DP  RH WIND       PRES   REMARKS
AMARILLO       FAIR      45  38  76 SW9       30.09R
BORGER         FAIR      46  39  76 NW8       30.12R
CANADIAN       FAIR      40  39  97 CALM      30.10S
DALHART        CLOUDY    46  39  76 N6        30.12R
DUMAS          FAIR      44  39  82 N8        30.12R WCI  39
GUYMON         NOT AVBL
HEREFORD       FAIR      46  40  77 S5        30.11R
PAMPA          NOT AVBL
PERRYTON       NOT AVBL
$$

SOUTHERN PANHANDLE/SOUTH PLAINS/ROLLING PLAINS

CITY           SKY/WX    TMP DP  RH WIND       PRES   REMARKS
LUBBOCK        FAIR      47  36  65 SW5       30.11R
SNYDER           N/A     48  44  87 S3        30.13R
CHILDRESS      FAIR      50  41  71 S5        30.11R
SEMINOLE       FAIR      46  38  74 CALM      30.13S
$$

PERMIAN BASIN

CITY           SKY/WX    TMP DP  RH WIND       PRES   REMARKS
MIDLAND        FAIR      53  44  71 S6        30.13R
ODESSA         FAIR      53  44  71 SW6       30.13R
WINK           FAIR      47  39  74 CALM      30.11R
$$

FAR WEST/SOUTHWEST MOUNTAINS/TRANS PECOS

CITY           SKY/WX    TMP DP  RH WIND       PRES   REMARKS
ALPINE         NOT AVBL
DRYDEN           N/A     57  48  72 N3        30.11R
EL PASO        FAIR      54  31  41 NE7       30.11R
FORT STOCKTON  FAIR      51  42  71 S7        30.11R
GUADALUPE PASS NOT AVBL
MARFA          FAIR      39  32  76 CALM      30.17R
PECOS          NOT AVBL
$$

DALLAS/FORT WORTH METROPLEX

CITY           SKY/WX    TMP DP  RH WIND       PRES   REMARKS
DFW AIRPORT    FAIR      56  48  74 N6        30.11R
FTW MEACHAM    FAIR      54  51  90 CALM      30.12R
DAL-EXECUTIVE  FAIR      54  49  83 NW6       30.11R
GRAND PRAIRIE  SUNNY     54  48  82 W3        30.13R
ADDISON        SUNNY     55  50  82 NW3       30.12R
MESQUITE       SUNNY     54  48  82 CALM      30.12R
LANCASTER      FAIR      50  46  87 CALM      30.13R
$$

NORTH CENTRAL TEXAS

CITY           SKY/WX    TMP DP  RH WIND       PRES   REMARKS
SHRMAN/DENISON NOT AVBL
GAINESVILLE    NOT AVBL
BRIDGEPORT     NOT AVBL
DENTON         FAIR      49  47  93 NW3       30.12R
WAXAHACHIE     FAIR      51  51 100 NW3       30.13R
GRANBURY       FAIR      50  49  95 CALM      30.15R
$$

WESTERN NORTH TEXAS

CITY           SKY/WX    TMP DP  RH WIND       PRES   REMARKS
WICHITA FALLS  FAIR      51  47  86 SW9       30.13R
VERNON         NOT AVBL
BRECKENRIDGE   NOT AVBL
COMANCHE       FAIR      50  50 100 CALM      30.14R
$$

CENTRAL AND SOUTH CENTRAL TEXAS

CITY           SKY/WX    TMP DP  RH WIND       PRES   REMARKS
AUSTIN/BERGSTM PTSUNNY   58  51  78 N7        30.12R
WACO           FAIR      53  49  86 NW3       30.12R
HILLSBORO      FAIR      49  48  97 CALM      30.13R
TEMPLE         FAIR      52  51  97 CALM      30.14R
KILLEEN-GRAY   FAIR      54  51  90 VRB3      30.13R
FORT HOOD      FAIR      51  50  94 CALM      30.11R
GEORGETOWN     SUNNY     52  48  87 NW6G12    30.13R
LAGO VISTA     FAIR      55  50  83 NE3       30.13S
SAN MARCOS     PTSUNNY   57  52  82 N6        30.13R
NEW BRAUNFELS  CLOUDY    59  51  75 N7        30.10R
RANDOLPH AFB   CLOUDY    59  52  78 N9        30.10S
SAN ANTONIO    PTSUNNY   59  50  72 N7        30.11S
STINSON        PTSUNNY   61  49  64 N9        30.08S
PLEASANTON     NOT AVBL
LA GRANGE      NOT AVBL
GIDDINGS       FAIR      57  49  77 N6        30.15R
$$

EAST TEXAS

CITY           SKY/WX    TMP DP  RH WIND       PRES   REMARKS
PARIS          FAIR      52  43  71 N9        30.10S
CLARKSVILLE    NOT AVBL
TYLER          FAIR      53  47  79 CALM      30.10R
LONGVIEW       FAIR      54  49  83 N9        30.08R
PALESTINE      FAIR      51  50  95 CALM      30.11R
NACOGDOCHES    FAIR      54  48  82 N8        30.07R
$$

TEXAS HILL COUNTRY AND EDWARDS PLATEAU

CITY           SKY/WX    TMP DP  RH WIND       PRES   REMARKS
LLANO          NOT AVBL
HORSESHOE BAY  FAIR      50  50  99 CALM      30.14R
KERRVILLE      CLOUDY    52  50  93 CALM      30.13S
FREDERICKSBRG  NOT AVBL
ROCKSPRINGS    NOT AVBL
HONDO          CLOUDY    58  53  84 N8        30.12S
UVALDE         NOT AVBL
DEL RIO        FAIR      56  52  86 NE7       30.09S
$$

SOUTHEAST TEXAS

CITY           SKY/WX    TMP DP  RH WIND       PRES   REMARKS
COLLEGE STN    FAIR      56  52  86 N6        30.11R
CALDWELL       NOT AVBL
CROCKETT       NOT AVBL
BRENHAM        NOT AVBL
HUNTSVILLE     FAIR      56  49  77 N5        30.10R
CONROE         PTSUNNY   57  52  83 N8        30.08R
HOUSTON BUSH   PTSUNNY   58  52  80 N8        30.07R
HOUSTON HOBBY  PTSUNNY   61  53  75 N13       30.06R
PERLAND        CLOUDY    63  54  72 N13       30.06R
WHARTON        NOT AVBL
$$

THE UPPER TEXAS COAST

CITY           SKY/WX    TMP DP  RH WIND       PRES   REMARKS
ORANGE         PTSUNNY   61  56  83 N7        30.04R
PORT ARTHUR    PTSUNNY   63  57  81 MISG      30.02R
GALVESTON      CLOUDY    64  59  83 N20       30.03R
ANGLETON       CLOUDY    62  54  74 N14       30.04R
BAY CITY       CLOUDY    63  53  71 N8        30.05R
$$

TEXAS COASTAL BEND, RIO GRANDE PLAINS DEEP SOUTH TEXAS

CITY           SKY/WX    TMP DP  RH WIND       PRES   REMARKS
VICTORIA       CLOUDY    60  52  74 N10       30.07R
BEEVILLE       CLOUDY    61  55  80 NE9       30.08S
ROCKPORT       CLOUDY    64  52  64 N12       30.06R
PORT ARANSAS   NOT AVBL
PORT LAVACA    CLOUDY    61  54  77 N9G17     30.06R
CORPUS CHRISTI CLOUDY    65  51  60 N10       30.06R
KINGSVILLE NAS CLOUDY    64  55  72 N9        30.07R
COTULLA        CLOUDY    61  51  70 CALM      30.11R
LAREDO         CLOUDY    63  51  65 NE13      30.10R
BROWNSVILLE    CLOUDY    65  56  72 N10       30.02R
PORT ISABEL    CLOUDY    67  55  65 N16       30.01R
HEBBRONVILLE   NOT AVBL
MCALLEN        CLOUDY    68  53  58 N14       30.05R
WESLACO        NOT AVBL
FALFURRIAS     CLOUDY    65  51  60 N7        30.07R
EDINBURG       CLOUDY    67  52  57 N12       30.05S
$$




USA.gov is the U.S. government's official web portal to all federal, state and local government web resources and services.